EN

Hourly Weather Bolshoe Ryzhkovo

Today, 23 October, Friday

Time Temperature Precipitation Wind Pressure Humidity
00:00 +7°C° 0 mm 5 mps 741 mmHg 87%
01:00 +7°C° 0 mm 6 mps 741 mmHg 90%
02:00 +8°C° 0 mm 5 mps 741 mmHg 90%
03:00 +7°C° 0 mm 5 mps 741 mmHg 91%
04:00 +7°C° 0 mm 5 mps 741 mmHg 92%
05:00 +7°C° 0 mm 5 mps 741 mmHg 93%
06:00 +8°C° 0 mm 5 mps 741 mmHg 93%
07:00 +8°C° 0 mm 5 mps 741 mmHg 92%
08:00 +8°C° 0 mm 5 mps 741 mmHg 92%
09:00 +10°C° 0 mm 5 mps 741 mmHg 87%
10:00 +12°C° 0 mm 5 mps 741 mmHg 81%
11:00 +13°C° 0 mm 5 mps 741 mmHg 76%
12:00 +14°C° 0 mm 5 mps 741 mmHg 75%
13:00 +14°C° 0 mm 5 mps 741 mmHg 74%
14:00 +14°C° 0 mm 5 mps 740 mmHg 73%
15:00 +10°C° 0 mm 4 mps 740 mmHg 88%
16:00 +11°C° 0 mm 4 mps 740 mmHg 83%
17:00 +13°C° 0 mm 5 mps 739 mmHg 79%
18:00 +13°C° 0 mm 5 mps 739 mmHg 80%
19:00 +12°C° 0 mm 5 mps 739 mmHg 81%
20:00 +12°C° 0 mm 5 mps 739 mmHg 82%
21:00 +12°C° 0 mm 5 mps 739 mmHg 83%
22:00 +12°C° 0 mm 5 mps 739 mmHg 84%
23:00 +11°C° 0 mm 4 mps 739 mmHg 84%

Tomorrow, 24 October, Saturday

Time Temperature Precipitation Wind Pressure Humidity
00:00 +11°C° 0 mm 4 mps 739 mmHg 87%
01:00 +10°C° 0 mm 3 mps 739 mmHg 90%
02:00 +10°C° 0 mm 3 mps 739 mmHg 92%
03:00 +9°C° 0 mm 3 mps 739 mmHg 94%
04:00 +9°C° 0 mm 3 mps 739 mmHg 95%
05:00 +8°C° 0 mm 2 mps 739 mmHg 96%
06:00 +9°C° 0 mm 2 mps 739 mmHg 95%
07:00 +9°C° 0 mm 2 mps 740 mmHg 95%
08:00 +9°C° 0 mm 2 mps 740 mmHg 94%
09:00 +10°C° 0 mm 2 mps 740 mmHg 88%
10:00 +12°C° 0 mm 2 mps 740 mmHg 83%
11:00 +13°C° 0 mm 2 mps 740 mmHg 78%
12:00 +12°C° 0 mm 3 mps 740 mmHg 77%
13:00 +13°C° 0 mm 3 mps 740 mmHg 77%
14:00 +13°C° 0 mm 3 mps 740 mmHg 76%
15:00 +12°C° 0.1 mm 3 mps 740 mmHg 82%
16:00 +13°C° 0.1 mm 2 mps 740 mmHg 87%
17:00 +12°C° 0.1 mm 2 mps 740 mmHg 93%
18:00 +12°C° 0.3 mm 2 mps 740 mmHg 94%
19:00 +12°C° 0.3 mm 1 mps 740 mmHg 95%
20:00 +11°C° 0.3 mm 1 mps 740 mmHg 96%
21:00 +11°C° 1.5 mm 1 mps 740 mmHg 95%
22:00 +10°C° 1.5 mm 2 mps 740 mmHg 95%
23:00 +10°C° 1.5 mm 2 mps 739 mmHg 95%

Day after tomorrow, 25 October, Sunday

Time Temperature Precipitation Wind Pressure Humidity
00:00 +10°C° 1.8 mm 2 mps 740 mmHg 95%
01:00 +9°C° 1.8 mm 2 mps 740 mmHg 95%
02:00 +9°C° 1.8 mm 2 mps 740 mmHg 95%
03:00 +9°C° 0.1 mm 2 mps 740 mmHg 95%
04:00 +8°C° 0.1 mm 2 mps 740 mmHg 95%
05:00 +8°C° 0.1 mm 3 mps 740 mmHg 96%
06:00 +8°C° 0 mm 3 mps 741 mmHg 94%
07:00 +7°C° 0 mm 4 mps 741 mmHg 92%
08:00 +7°C° 0 mm 4 mps 741 mmHg 90%
09:00 +8°C° 0 mm 5 mps 742 mmHg 86%
10:00 +9°C° 0 mm 5 mps 742 mmHg 82%
11:00 +9°C° 0 mm 6 mps 743 mmHg 77%
12:00 +10°C° 0 mm 5 mps 743 mmHg 75%
13:00 +10°C° 0 mm 5 mps 743 mmHg 73%
14:00 +10°C° 0 mm 5 mps 744 mmHg 71%
15:00 +10°C° 0 mm 4 mps 744 mmHg 74%
16:00 +10°C° 0 mm 3 mps 745 mmHg 78%
17:00 +9°C° 0 mm 3 mps 745 mmHg 82%
18:00 +9°C° 0 mm 2 mps 745 mmHg 81%
19:00 +9°C° 0 mm 2 mps 746 mmHg 81%
20:00 +9°C° 0 mm 2 mps 747 mmHg 80%
21:00 +8°C° 0 mm 2 mps 747 mmHg 83%
22:00 +7°C° 0 mm 2 mps 747 mmHg 85%
23:00 +6°C° 0 mm 2 mps 747 mmHg 87%

, 26 October, Monday

Time Temperature Precipitation Wind Pressure Humidity
00:00 +7°C° 0 mm 1 mps 748 mmHg 88%
01:00 +6°C° 0 mm 1 mps 748 mmHg 89%
02:00 +6°C° 0 mm 1 mps 748 mmHg 89%
03:00 +6°C° 0 mm 1 mps 748 mmHg 90%
04:00 +6°C° 0 mm 1 mps 749 mmHg 90%
05:00 +5°C° 0 mm 1 mps 749 mmHg 91%
06:00 +6°C° 0 mm 1 mps 749 mmHg 89%
07:00 +6°C° 0 mm 1 mps 749 mmHg 87%
08:00 +7°C° 0 mm 1 mps 750 mmHg 85%
09:00 +8°C° 0 mm 1 mps 750 mmHg 80%
10:00 +9°C° 0 mm 1 mps 750 mmHg 74%
11:00 +9°C° 0 mm 2 mps 750 mmHg 69%
12:00 +9°C° 0 mm 2 mps 750 mmHg 67%
13:00 +10°C° 0 mm 2 mps 750 mmHg 66%
14:00 +10°C° 0 mm 2 mps 750 mmHg 64%
15:00 +9°C° 0 mm 2 mps 750 mmHg 68%
16:00 +8°C° 0 mm 2 mps 750 mmHg 72%
17:00 +7°C° 0 mm 2 mps 750 mmHg 77%
18:00 +7°C° 0 mm 2 mps 750 mmHg 78%
19:00 +5°C° 0 mm 3 mps 750 mmHg 80%
20:00 +5°C° 0 mm 3 mps 751 mmHg 81%
21:00 +5°C° 0 mm 3 mps 751 mmHg 82%
22:00 +4°C° 0 mm 3 mps 751 mmHg 83%
23:00 +4°C° 0 mm 3 mps 751 mmHg 84%

26 October, Monday

Time Temperature Precipitation Wind Pressure Humidity
00:00 +7°C° 0 mm 1 mps 748 mmHg 88%
01:00 +6°C° 0 mm 1 mps 748 mmHg 89%
02:00 +6°C° 0 mm 1 mps 748 mmHg 89%
03:00 +6°C° 0 mm 1 mps 748 mmHg 90%
04:00 +6°C° 0 mm 1 mps 749 mmHg 90%
05:00 +5°C° 0 mm 1 mps 749 mmHg 91%
06:00 +6°C° 0 mm 1 mps 749 mmHg 89%
07:00 +6°C° 0 mm 1 mps 749 mmHg 87%
08:00 +7°C° 0 mm 1 mps 750 mmHg 85%
09:00 +8°C° 0 mm 1 mps 750 mmHg 80%
10:00 +9°C° 0 mm 1 mps 750 mmHg 74%
11:00 +9°C° 0 mm 2 mps 750 mmHg 69%
12:00 +9°C° 0 mm 2 mps 750 mmHg 67%
13:00 +10°C° 0 mm 2 mps 750 mmHg 66%
14:00 +10°C° 0 mm 2 mps 750 mmHg 64%
15:00 +9°C° 0 mm 2 mps 750 mmHg 68%
16:00 +8°C° 0 mm 2 mps 750 mmHg 72%
17:00 +7°C° 0 mm 2 mps 750 mmHg 77%
18:00 +7°C° 0 mm 2 mps 750 mmHg 78%
19:00 +5°C° 0 mm 3 mps 750 mmHg 80%
20:00 +5°C° 0 mm 3 mps 751 mmHg 81%
21:00 +5°C° 0 mm 3 mps 751 mmHg 82%
22:00 +4°C° 0 mm 3 mps 751 mmHg 83%
23:00 +4°C° 0 mm 3 mps 751 mmHg 84%

27 October, Tuesday

Time Temperature Precipitation Wind Pressure Humidity
00:00 +4°C° 0 mm 3 mps 751 mmHg 85%
01:00 +4°C° 0 mm 3 mps 751 mmHg 86%
02:00 +3°C° 0 mm 3 mps 750 mmHg 86%
03:00 +3°C° 0 mm 3 mps 751 mmHg 88%
04:00 +3°C° 0 mm 3 mps 751 mmHg 89%
05:00 +3°C° 0 mm 3 mps 751 mmHg 90%
06:00 +3°C° 0 mm 4 mps 751 mmHg 89%
07:00 +4°C° 0 mm 4 mps 751 mmHg 87%
08:00 +4°C° 0 mm 4 mps 751 mmHg 85%
09:00 +5°C° 0 mm 4 mps 751 mmHg 82%
10:00 +6°C° 0 mm 5 mps 751 mmHg 78%
11:00 +7°C° 0 mm 5 mps 751 mmHg 75%
12:00 +8°C° 0 mm 5 mps 750 mmHg 73%
13:00 +9°C° 0 mm 5 mps 750 mmHg 71%
14:00 +9°C° 0 mm 5 mps 750 mmHg 69%
15:00 +8°C° 0 mm 4 mps 750 mmHg 72%
16:00 +8°C° 0 mm 4 mps 750 mmHg 75%
17:00 +7°C° 0 mm 4 mps 750 mmHg 78%
18:00 +7°C° 0 mm 4 mps 750 mmHg 77%
19:00 +7°C° 0 mm 5 mps 750 mmHg 75%
20:00 +6°C° 0 mm 5 mps 750 mmHg 74%
21:00 +6°C° 0 mm 5 mps 750 mmHg 73%
22:00 +6°C° 0 mm 5 mps 750 mmHg 71%
23:00 +6°C° 0 mm 4 mps 750 mmHg 70%

28 October, Wednesday

Time Temperature Precipitation Wind Pressure Humidity
00:00 +6°C° 0 mm 4 mps 750 mmHg 69%
01:00 +5°C° 0 mm 4 mps 750 mmHg 69%
02:00 +5°C° 0 mm 4 mps 750 mmHg 68%
03:00 +5°C° 0 mm 4 mps 750 mmHg 68%
04:00 +4°C° 0 mm 4 mps 750 mmHg 69%
05:00 +4°C° 0 mm 3 mps 749 mmHg 69%
06:00 +4°C° 0 mm 3 mps 750 mmHg 68%
07:00 +4°C° 0 mm 3 mps 750 mmHg 67%
08:00 +4°C° 0 mm 3 mps 750 mmHg 67%
09:00 +6°C° 0 mm 4 mps 749 mmHg 63%
10:00 +7°C° 0 mm 4 mps 749 mmHg 60%
11:00 +8°C° 0 mm 4 mps 749 mmHg 56%
12:00 +10°C° 0 mm 4 mps 749 mmHg 55%
13:00 +10°C° 0 mm 4 mps 749 mmHg 54%
14:00 +11°C° 0 mm 4 mps 748 mmHg 53%
15:00 +10°C° 0 mm 4 mps 748 mmHg 57%
16:00 +9°C° 0 mm 3 mps 748 mmHg 60%
17:00 +8°C° 0 mm 3 mps 748 mmHg 64%
18:00 +7°C° 0 mm 3 mps 748 mmHg 63%
19:00 +6°C° 0 mm 4 mps 748 mmHg 61%
20:00 +6°C° 0 mm 4 mps 748 mmHg 60%
21:00 +7°C° 0 mm 3 mps 748 mmHg 59%
22:00 +5°C° 0 mm 3 mps 748 mmHg 58%
23:00 +5°C° 0 mm 3 mps 748 mmHg 57%
Show more